Location: La Savane
(18.0962°N, 63.0646°W)
Time: 07:25:51
(UTC+00:00)

Okean-O - Pass Details

Date: 29 October 2020
Orbit: 638 x 641 km, 98.2° (Epoch: 28 November)

Event Time Altitude Azimuth Distance (km) Brightness Sun altitude
Rises 22:43:47 0° 157° (SSE) 2,932 5.9 -15.4°
Reaches altitude 10° 22:46:02 10° 152° (SSE) 2,025 5.0 -15.9°
Maximum altitude 22:50:19 51° 76° (ENE) 800 2.7 -16.9°
Drops below altitude 10° 22:54:36 10° 1° (N) 2,029 5.1 -17.9°
Sets 22:56:51 0° 356° (N) 2,939 6.0 -18.5°
